Other Surface Observations
Issued by NWS Tucson, AZ

Home | Current Version | Previous Version | Text Only | Print | Product List | Glossary On
Versions: 1 2 3 4 5 6 7 8 9 10 11 12 13 14 15 16 17 18 19 20 21 22 23 24 25 26 27 28 29 30 31 32 33 34 35 36 37 38 39 40 41 42 43 44 45 46 47 48 49 50
000
SXUS55 KTWC 251015
OSOTWC

WEATHER ROUNDUP FOR SOUTHEAST ARIZONA
NATIONAL WEATHER SERVICE TUCSON AZ
315 AM MST SAT NOV 25 2017

AZZ504>506-514-251115-
LOCATION       SKY/WX    TMP DP  RH WIND       PRES   REMARKS
TUCSON         CLEAR     55  26  32 SE6       30.07S
DAVIS-MONTHAN  CLEAR     53  25  34 S6        30.05S
CHILDRENS PARK N/A      N/A N/A  42 E2                PIMA CO DEQ
ALVERNON/22ND  N/A       57 N/A N/A E2                PIMA CO DEQ
CHERRY/GLENN   N/A      N/A N/A N/A N/A               PIMA CO DEQ
TANGERINE      N/A       55 N/A N/A NE5               PIMA CO DEQ
CONTL RANCH    N/A       55  29  37 S4                PIMA CO DEQ
GRANT/1ST      N/A       55  29  36 E3                PIMA CO DEQ
CRAYCROFT/22ND N/A       59  28  30 SE4               PIMA CO DEQ
GOLFLINKS/KOLB N/A       60  27  28 SE5               PIMA CO DEQ
AJO/12TH       N/A       51  29  43 SW1               PIMA CO DEQ
FAIRGROUNDS    N/A       55 N/A N/A E9                PIMA CO DEQ
SAGUARO        N/A       54  26  33 NW3               *SABINO CYN
SAN CARLOS     N/A       54  26  33 CALM              *SAN CARLOS
GREEN VALLEY   N/A       52  28  40 S7                PIMA CO DEQ
HORSE CAMP CYN N/A       64  27  25 CALM              *ARAVAIPA CYN
RINCON MTNS    N/A       51  17  26 NW2               *NR MANNING CAMP
$$

AZZ509>511-251115-
LOCATION       SKY/WX    TMP DP  RH WIND       PRES   REMARKS
SAFFORD        CLEAR     49  21  33 S3        30.07R
STRAY HORSE    N/A       52  10  18 N3                *
TRAIL CABIN    N/A       55  23  29 SW3               *N OF GRANVILLE
BLACK HILLS    NOT AVBL
DRY LAKE       N/A       52  25  34 N6                *NATANES MTNS
NOON CREEK     N/A       57  14  18 SW8G11            *PINALENO MTNS
COLUMBINE      N/A       47   8  20 N3                *PINALENO MTNS
GUTHRIE        N/A       59  23  25 NW17G23           *SW OF GUTHRIE
$$

AZZ502-503-513-251115-
LOCATION       SKY/WX    TMP DP  RH WIND       PRES   REMARKS
NOGALES        CLEAR     48  26  42 SE3       30.12R
SELLS          N/A       61  27  27 E6                *
SASABE         N/A       45  25  46 SW4               *ALTAR VLY
HOPKINS        N/A       59  16  18 NW10G15           *SANTA RITA MTNS
CARR CYN       N/A       52  21  29 S2                *W OF HEREFORD
$$

AZZ507-508-512-251115-
LOCATION       SKY/WX    TMP DP  RH WIND       PRES   REMARKS
SIERRA VISTA   CLEAR     60  25  26 W14       30.17R
DOUGLAS        PTCLDY    42  19  39 CALM      30.14R
EMPIRE MTNS    NOT AVBL
MULESHOE RANCH N/A       53  23  31 SE2               *PRESERVE
HEADQUARTERS   N/A       48  25  40 E4                *CHIRICAHUA MTNS
$$

.............................NOTES.............................
THIS IS AN AUTOMATED COLLECTIVE WITH MINIMAL QUALITY CONTROL.
PIMA CO DEQ SITES HAVE NONSTANDARD WIND SENSOR HEIGHTS.
PIMA CO DEQ SITES DO NOT REPORT WIND GUSTS.
* INDICATES WIND SENSORS LOCATED AT 20 FEET INSTEAD OF 33 FEET.
..............................KEY..............................
SKY/WX - SKY CONDITION/WEATHER
TMP    - TEMPERATURE IN FAHRENHEIT
DP     - DEWPOINT IN FAHRENHEIT
RH     - RELATIVE HUMIDITY IN PERCENT
WIND   - DIRECTION AND SPEED IN MILES PER HOUR (MPH)
VRB    - VARIABLE WIND DIRECTION
PRES   - MEAN SEA LEVEL PRESSURE IN INCHES OF MERCURY
         F - FALLING PRESSURE   R - RISING PRESSURE
         S - STEADY PRESSURE
VSB    - VISIBILITY IN MILES
HX     - HEAT INDEX IN FAHRENHEIT
WCI    - WIND CHILL INDEX IN FAHRENHEIT
N/A    - NOT AVAILABLE
AFB    - AIR FORCE BASE
         DAVIS-MONTHAN IS DAVIS-MONTHAN AIR FORCE BASE
CYN    - CANYON
MTNS   - MOUNTAINS
NCA    - NATIONAL CONSERVATION AREA
NR     - NEAR
VLY    - VALLEY
CONTL  - CONTINENTAL
PIMA CO DEQ - PIMA COUNTY DEPT OF ENVIRONMENTAL QUALITY



USA.gov is the U.S. government's official web portal to all federal, state and local government web resources and services.